Time,TemperatureF,DewpointF,PressureIn,WindDirection,WindDirectionDegrees,WindSpeedMPH,WindSpeedGustMPH,Humidity,HourlyPrecipIn,Conditions,Clouds,dailyrainin,SolarRadiationWatts/m^2,SoftwareType,DateUTC
2013-02-18 00:21:00,9.0,5.0,-100.00,NNE,13,18.0,30.0,83,0.00,,,0.01,0.000000,,2013-02-18 07:21:00,
2013-02-18 00:31:00,9.0,5.0,-100.00,NNE,13,18.0,30.0,83,0.00,,,0.01,0.000000,,2013-02-18 07:31:00,
2013-02-18 00:42:00,9.0,5.0,-100.00,NNE,13,18.0,30.0,83,0.00,,,0.01,0.000000,,2013-02-18 07:42:00,
2013-02-18 00:51:00,9.0,5.0,-100.00,NNE,13,18.0,30.0,83,0.00,,,0.01,0.000000,,2013-02-18 07:51:00,
2013-02-18 01:21:00,8.0,4.0,-100.00,North,354,11.0,34.0,82,0.00,,,0.01,0.000000,,2013-02-18 08:21:00,
2013-02-18 01:32:00,8.0,4.0,-100.00,North,354,11.0,34.0,82,0.00,,,0.01,0.000000,,2013-02-18 08:32:00,
2013-02-18 01:42:00,8.0,4.0,-100.00,North,354,11.0,34.0,82,0.00,,,0.01,0.000000,,2013-02-18 08:42:00,
2013-02-18 01:52:00,8.0,4.0,-100.00,North,354,11.0,34.0,82,0.00,,,0.01,0.000000,,2013-02-18 08:52:00,
2013-02-18 02:22:00,8.0,4.0,-100.00,North,5,15.0,24.0,83,0.00,,,0.01,0.000000,,2013-02-18 09:22:00,
2013-02-18 02:31:00,8.0,4.0,-100.00,North,5,15.0,24.0,83,0.00,,,0.01,0.000000,,2013-02-18 09:31:00,
2013-02-18 02:41:00,8.0,4.0,-100.00,North,5,15.0,24.0,83,0.00,,,0.01,0.000000,,2013-02-18 09:41:00,
2013-02-18 02:51:00,8.0,4.0,-100.00,North,5,15.0,24.0,83,0.00,,,0.01,0.000000,,2013-02-18 09:51:00,
2013-02-18 03:21:00,8.0,4.0,-100.00,North,6,6.0,22.0,82,0.00,,,0.01,0.000000,,2013-02-18 10:21:00,
2013-02-18 03:31:00,8.0,4.0,-100.00,North,6,6.0,22.0,82,0.00,,,0.01,0.000000,,2013-02-18 10:31:00,
2013-02-18 03:42:00,8.0,4.0,-100.00,North,6,6.0,22.0,82,0.00,,,0.01,0.000000,,2013-02-18 10:42:00,
2013-02-18 03:51:00,8.0,4.0,-100.00,North,6,6.0,22.0,82,0.00,,,0.01,0.000000,,2013-02-18 10:51:00,
2013-02-18 04:21:00,7.0,3.0,-100.00,NNW,334,5.0,14.0,82,0.00,,,0.01,0.000000,,2013-02-18 11:21:00,
2013-02-18 04:32:00,7.0,3.0,-100.00,NNW,334,5.0,14.0,82,0.00,,,0.01,0.000000,,2013-02-18 11:32:00,
2013-02-18 04:42:00,7.0,3.0,-100.00,NNW,334,5.0,14.0,82,0.00,,,0.01,0.000000,,2013-02-18 11:42:00,
2013-02-18 04:52:00,7.0,3.0,-100.00,NNW,334,5.0,14.0,82,0.00,,,0.01,0.000000,,2013-02-18 11:52:00,
2013-02-18 05:22:00,7.0,3.0,-100.00,NNW,330,4.0,9.0,82,0.00,,,0.01,0.000000,,2013-02-18 12:22:00,
2013-02-18 05:32:00,7.0,3.0,-100.00,NNW,330,4.0,9.0,82,0.00,,,0.01,0.000000,,2013-02-18 12:32:00,
2013-02-18 05:42:00,7.0,3.0,-100.00,NNW,330,4.0,9.0,82,0.00,,,0.01,0.000000,,2013-02-18 12:42:00,
2013-02-18 05:52:00,7.0,3.0,-100.00,NNW,330,4.0,9.0,82,0.00,,,0.01,0.000000,,2013-02-18 12:52:00,
2013-02-18 06:22:00,7.0,3.0,-100.00,NNW,341,6.0,11.0,83,0.00,,,0.01,0.000000,,2013-02-18 13:22:00,
2013-02-18 06:42:00,7.0,3.0,-100.00,NNW,341,6.0,11.0,83,0.00,,,0.01,0.000000,,2013-02-18 13:42:00,
2013-02-18 06:52:00,7.0,3.0,-100.00,NNW,341,6.0,11.0,83,0.00,,,0.01,0.000000,,2013-02-18 13:52:00,
2013-02-18 07:22:00,6.0,2.0,-100.00,North,351,4.0,10.0,83,0.00,,,0.01,1.000000,,2013-02-18 14:22:00,
2013-02-18 07:32:00,6.0,2.0,-100.00,North,351,4.0,10.0,83,0.00,,,0.01,1.000000,,2013-02-18 14:32:00,
2013-02-18 07:41:00,6.0,2.0,-100.00,North,351,4.0,10.0,83,0.00,,,0.01,1.000000,,2013-02-18 14:41:00,
2013-02-18 07:52:00,6.0,2.0,-100.00,North,351,4.0,10.0,83,0.00,,,0.01,1.000000,,2013-02-18 14:52:00,
2013-02-18 08:22:00,8.0,4.0,-100.00,WSW,243,0.0,6.0,82,0.00,,,0.01,22.000000,,2013-02-18 15:22:00,
2013-02-18 08:32:00,8.0,4.0,-100.00,WSW,243,0.0,6.0,82,0.00,,,0.01,22.000000,,2013-02-18 15:32:00,
2013-02-18 08:42:00,8.0,4.0,-100.00,WSW,243,0.0,6.0,82,0.00,,,0.01,22.000000,,2013-02-18 15:42:00,
2013-02-18 08:52:00,8.0,4.0,-100.00,WSW,243,0.0,6.0,82,0.00,,,0.01,22.000000,,2013-02-18 15:52:00,
2013-02-18 09:22:00,13.0,8.0,-100.00,SSW,201,1.0,4.0,79,0.00,,,0.01,102.000000,,2013-02-18 16:22:00,
2013-02-18 09:32:00,13.0,8.0,-100.00,SSW,201,1.0,4.0,79,0.00,,,0.01,102.000000,,2013-02-18 16:32:00,
2013-02-18 09:42:00,13.0,8.0,-100.00,SSW,201,1.0,4.0,79,0.00,,,0.01,102.000000,,2013-02-18 16:42:00,
2013-02-18 09:52:00,13.0,8.0,-100.00,SSW,201,1.0,4.0,79,0.00,,,0.01,102.000000,,2013-02-18 16:52:00,
2013-02-18 10:22:00,15.0,7.0,-100.00,WNW,289,5.0,10.0,71,0.00,,,0.01,216.000000,,2013-02-18 17:22:00,
2013-02-18 10:32:00,15.0,7.0,-100.00,WNW,289,5.0,10.0,71,0.00,,,0.01,216.000000,,2013-02-18 17:32:00,
2013-02-18 10:42:00,15.0,7.0,-100.00,WNW,289,5.0,10.0,71,0.00,,,0.01,216.000000,,2013-02-18 17:42:00,
2013-02-18 10:52:00,15.0,7.0,-100.00,WNW,289,5.0,10.0,71,0.00,,,0.01,216.000000,,2013-02-18 17:52:00,
2013-02-18 11:22:00,17.0,8.0,-100.00,NW,315,5.0,9.0,68,0.00,,,0.01,304.000000,,2013-02-18 18:22:00,
2013-02-18 11:32:00,17.0,8.0,-100.00,NW,315,5.0,9.0,68,0.00,,,0.01,304.000000,,2013-02-18 18:32:00,
2013-02-18 11:42:00,17.0,8.0,-100.00,NW,315,5.0,9.0,68,0.00,,,0.01,304.000000,,2013-02-18 18:42:00,
2013-02-18 11:52:00,17.0,8.0,-100.00,NW,315,5.0,9.0,68,0.00,,,0.01,304.000000,,2013-02-18 18:52:00,
2013-02-18 12:22:00,20.0,7.0,-100.00,WSW,245,8.0,16.0,57,0.00,,,-99.99,823.000000,,2013-02-18 19:22:00,
2013-02-18 12:33:00,20.0,7.0,-100.00,WSW,245,8.0,16.0,57,0.00,,,-99.99,823.000000,,2013-02-18 19:33:00,
2013-02-18 12:42:00,20.0,7.0,-100.00,WSW,245,8.0,16.0,57,0.00,,,-99.99,823.000000,,2013-02-18 19:42:00,
2013-02-18 12:52:00,20.0,7.0,-100.00,WSW,245,8.0,16.0,57,0.00,,,-99.99,823.000000,,2013-02-18 19:52:00,
2013-02-18 13:22:00,19.0,3.0,-100.00,WSW,248,12.0,19.0,50,0.00,,,0.01,901.000000,,2013-02-18 20:22:00,
2013-02-18 13:32:00,19.0,3.0,-100.00,WSW,248,12.0,19.0,50,0.00,,,0.01,901.000000,,2013-02-18 20:32:00,
2013-02-18 13:42:00,19.0,3.0,-100.00,WSW,248,12.0,19.0,50,0.00,,,0.01,901.000000,,2013-02-18 20:42:00,
2013-02-18 13:52:00,19.0,3.0,-100.00,WSW,248,12.0,19.0,50,0.00,,,0.01,901.000000,,2013-02-18 20:52:00,
2013-02-18 14:21:00,18.0,2.0,-100.00,West,280,11.0,19.0,49,0.00,,,0.01,673.000000,,2013-02-18 21:21:00,
2013-02-18 14:32:00,18.0,2.0,-100.00,West,280,11.0,19.0,49,0.00,,,0.01,673.000000,,2013-02-18 21:32:00,
2013-02-18 14:42:00,18.0,2.0,-100.00,West,280,11.0,19.0,49,0.00,,,0.01,673.000000,,2013-02-18 21:42:00,
2013-02-18 14:52:00,18.0,2.0,-100.00,West,280,11.0,19.0,49,0.00,,,0.01,673.000000,,2013-02-18 21:52:00,
2013-02-18 15:22:00,20.0,4.0,-100.00,WNW,282,7.0,17.0,48,0.00,,,0.01,600.000000,,2013-02-18 22:22:00,
2013-02-18 15:33:00,20.0,4.0,-100.00,WNW,282,7.0,17.0,48,0.00,,,0.01,600.000000,,2013-02-18 22:33:00,
2013-02-18 15:42:00,20.0,4.0,-100.00,WNW,282,7.0,17.0,48,0.00,,,0.01,600.000000,,2013-02-18 22:42:00,
2013-02-18 15:52:00,20.0,4.0,-100.00,WNW,282,7.0,17.0,48,0.00,,,0.01,600.000000,,2013-02-18 22:52:00,
2013-02-18 16:22:00,20.0,3.0,-100.00,WSW,242,9.0,17.0,46,0.00,,,0.01,473.000000,,2013-02-18 23:22:00,
2013-02-18 16:32:00,20.0,3.0,-100.00,WSW,242,9.0,17.0,46,0.00,,,0.01,473.000000,,2013-02-18 23:32:00,
2013-02-18 16:42:00,20.0,3.0,-100.00,WSW,242,9.0,17.0,46,0.00,,,0.01,473.000000,,2013-02-18 23:42:00,
2013-02-18 16:52:00,20.0,3.0,-100.00,WSW,242,9.0,17.0,46,0.00,,,0.01,473.000000,,2013-02-18 23:52:00,
2013-02-18 17:22:00,18.0,3.0,-100.00,SSW,205,8.0,14.0,50,0.00,,,0.01,262.000000,,2013-02-19 00:22:00,
2013-02-18 17:33:00,18.0,3.0,-100.00,SSW,205,8.0,14.0,50,0.00,,,0.01,262.000000,,2013-02-19 00:33:00,
2013-02-18 17:42:00,18.0,3.0,-100.00,SSW,205,8.0,14.0,50,0.00,,,0.01,262.000000,,2013-02-19 00:42:00,
2013-02-18 17:52:00,18.0,3.0,-100.00,SSW,205,8.0,14.0,50,0.00,,,0.01,262.000000,,2013-02-19 00:52:00,
2013-02-18 18:23:00,13.0,1.0,-100.00,South,173,8.0,11.0,59,0.00,,,0.01,39.000000,,2013-02-19 01:23:00,
2013-02-18 18:42:00,13.0,1.0,-100.00,South,173,8.0,11.0,59,0.00,,,0.01,39.000000,,2013-02-19 01:42:00,
2013-02-18 18:52:00,13.0,1.0,-100.00,South,173,8.0,11.0,59,0.00,,,0.01,39.000000,,2013-02-19 01:52:00,
2013-02-18 19:22:00,11.0,0.0,-100.00,SSE,156,7.0,11.0,61,0.00,,,0.01,1.000000,,2013-02-19 02:22:00,
2013-02-18 19:33:00,11.0,0.0,-100.00,SSE,156,7.0,11.0,61,0.00,,,0.01,1.000000,,2013-02-19 02:33:00,
2013-02-18 19:42:00,11.0,0.0,-100.00,SSE,156,7.0,11.0,61,0.00,,,0.01,1.000000,,2013-02-19 02:42:00,
2013-02-18 19:52:00,11.0,0.0,-100.00,SSE,156,7.0,11.0,61,0.00,,,0.01,1.000000,,2013-02-19 02:52:00,
2013-02-18 20:22:00,10.0,-2.0,-100.00,SSE,158,8.0,11.0,58,0.00,,,0.01,0.000000,,2013-02-19 03:22:00,
2013-02-18 20:33:00,10.0,-2.0,-100.00,SSE,158,8.0,11.0,58,0.00,,,0.01,0.000000,,2013-02-19 03:33:00,
2013-02-18 20:43:00,10.0,-2.0,-100.00,SSE,158,8.0,11.0,58,0.00,,,0.01,0.000000,,2013-02-19 03:43:00,
2013-02-18 20:52:00,10.0,-2.0,-100.00,SSE,158,8.0,11.0,58,0.00,,,0.01,0.000000,,2013-02-19 03:52:00,
2013-02-18 21:22:00,10.0,0.0,-100.00,SE,143,6.0,10.0,62,0.00,,,0.01,0.000000,,2013-02-19 04:22:00,
2013-02-18 21:32:00,10.0,0.0,-100.00,SE,143,6.0,10.0,62,0.00,,,0.01,0.000000,,2013-02-19 04:32:00,
2013-02-18 21:42:00,10.0,0.0,-100.00,SE,143,6.0,10.0,62,0.00,,,0.01,0.000000,,2013-02-19 04:42:00,
2013-02-18 21:51:00,10.0,0.0,-100.00,SE,143,6.0,10.0,62,0.00,,,0.01,0.000000,,2013-02-19 04:51:00,
2013-02-18 22:22:00,11.0,-3.0,-100.00,SE,124,8.0,9.0,53,0.00,,,0.00,0.000000,,2013-02-19 05:22:00,
2013-02-18 22:32:00,11.0,-3.0,-100.00,SE,124,8.0,9.0,53,0.00,,,0.00,0.000000,,2013-02-19 05:32:00,
2013-02-18 22:43:00,11.0,-3.0,-100.00,SE,124,8.0,9.0,53,0.00,,,0.00,0.000000,,2013-02-19 05:43:00,
2013-02-18 22:52:00,11.0,-3.0,-100.00,SE,124,8.0,9.0,53,0.00,,,0.00,0.000000,,2013-02-19 05:52:00,
2013-02-18 23:21:00,12.0,-2.0,-100.00,ESE,122,6.0,10.0,53,0.00,,,0.00,0.000000,,2013-02-19 06:21:00,
2013-02-18 23:32:00,12.0,-2.0,-100.00,ESE,122,6.0,10.0,53,0.00,,,0.00,0.000000,,2013-02-19 06:32:00,
2013-02-18 23:42:00,12.0,-2.0,-100.00,ESE,122,6.0,10.0,53,0.00,,,0.00,0.000000,,2013-02-19 06:42:00,
2013-02-18 23:52:00,12.0,-2.0,-100.00,ESE,122,6.0,10.0,53,0.00,,,0.00,0.000000,,2013-02-19 06:52:00,